Weather History for Casper, WY

Change the Weather History Date:

Thursday, June 13, 2013

  Actual Average Record
Temperature  
Mean Temperature 69 °F 61 °F  
Max Temperature 91 °F 78 °F 95 °F (1994)
Min Temperature 47 °F 45 °F 28 °F (1969)
Degree Days  
Heating Degree Days 0 5  
Month to date heating degree days 60 86  
Since 1 June heating degree days 60 86  
Since 1 July heating degree days 7259 7530  
Cooling Degree Days 4 1  
Month to date cooling degree days 21 12  
Year to date cooling degree days 31 16  
Since 1 June cooling degree days 21 12  
Growing Degree Days 20 (Base 50)    
Moisture  
Dew Point 46 °F    
Average Humidity 53    
Maximum Humidity 93    
Minimum Humidity 12    
Precipitation  
Precipitation 0.17 in 0.05 in 1.26 in (1983)
Month to date precipitation 0.30 0.77  
Year to date precipitation 6.27 5.98  
Snow  
Snow 0.00 in 0.00 in - ()
Month to date snowfall 0.0 0.1  
Since 1 June snowfall 0.0 0.1  
Since 1 July snowfall 85.7 74.9  
Snow Depth 0.00 in    
Sea Level Pressure  
Sea Level Pressure 29.83 in    
Wind  
Wind Speed 11 mph (ESE)    
Max Wind Speed 38 mph    
Max Gust Speed 48 mph    
Visibility 10 miles    
Events Rain , Thunderstorm    
T = Trace of Precipitation, MM = Missing Value Source: NWS Daily Summary

Daily Weather History Graph

Daily Weather History Graph

Search for Another Location

Airport:

Trip Planner

Search our weather history database for the weather conditions in past years. The results will help you decide how hot, cold, wet, or windy it might be!

Date:

Astronomy

Jun. 13, 2013 Rise Set
Actual Time 5:26 AM MDT 8:45 PM MDT
Civil Twilight 4:51 AM MDT 9:20 PM MDT
Nautical Twilight 4:05 AM MDT 10:06 PM MDT
Astronomical Twilight 3:09 AM MDT 11:02 PM MDT
Moon 10:11 AM MDT (6/13) 11:47 PM MDT (6/13)
Length of Visible Light 16h 29m
Length of Day
15h 19m
Waxing Crescent, 22% of the Moon is Illuminated
Jun 13
Waxing Crescent
Jun 16
First Quarter
Jun 23
Full
Jun 29
Last Quarter
Jul 8
New

Hourly Weather History & Observations

Time (MDT) Temp. Dew Point Humidity Pressure Visibility Wind Dir Wind Speed Gust Speed Precip Events Conditions
12:53 AM 60.1 °F 50.0 °F 69% 29.88 in 10.0 mi East 8.1 mph - N/A   Clear
1:53 AM 55.9 °F 48.9 °F 77% 29.89 in 10.0 mi East 5.8 mph - N/A   Clear
2:53 AM 51.1 °F 48.0 °F 89% 29.89 in 10.0 mi NNE 5.8 mph - N/A   Clear
3:53 AM 51.1 °F 48.0 °F 89% 29.88 in 10.0 mi NNE 3.5 mph - N/A   Clear
4:53 AM 48.9 °F 46.9 °F 93% 29.89 in 10.0 mi NNE 4.6 mph - N/A   Clear
5:53 AM 50.0 °F 48.0 °F 93% 29.90 in 10.0 mi North 4.6 mph - N/A   Clear
6:53 AM 54.0 °F 48.9 °F 83% 29.90 in 10.0 mi NE 3.5 mph - N/A   Clear
7:53 AM 55.9 °F 50.0 °F 80% 29.89 in 10.0 mi Calm Calm - N/A   Clear
8:53 AM 62.1 °F 51.1 °F 67% 29.86 in 10.0 mi ESE 5.8 mph - N/A   Clear
9:53 AM 70.0 °F 48.0 °F 46% 29.81 in 10.0 mi SE 4.6 mph - N/A   Clear
10:53 AM 82.0 °F 36.0 °F 19% 29.78 in 10.0 mi SSW 24.2 mph 35.7 mph N/A   Clear
11:53 AM 82.9 °F 35.1 °F 18% 29.77 in 10.0 mi SW 25.3 mph 34.5 mph N/A   Clear
12:53 PM 86.0 °F 35.1 °F 16% 29.75 in 10.0 mi SSW 28.8 mph 43.7 mph N/A   Clear
1:53 PM 90.0 °F 30.0 °F 12% 29.70 in 10.0 mi SW 28.8 mph 42.6 mph N/A   Clear
2:45 PM 82.4 °F 39.2 °F 21% 29.92 in 10.0 mi NW 18.4 mph 26.5 mph N/A   Clear
2:53 PM 82.0 °F 39.0 °F 22% 29.73 in 10.0 mi NW 28.8 mph 34.5 mph N/A   Clear
3:25 PM 78.8 °F 39.2 °F 24% 29.94 in 10.0 mi NW 16.1 mph 24.2 mph 0.00 in Rain , Thunderstorm Light Thunderstorms and Rain
3:38 PM 64.4 °F 53.6 °F 68% 29.98 in 1.8 mi West 13.8 mph 32.2 mph 0.08 in Rain , Thunderstorm Heavy Thunderstorms and Rain
3:47 PM 66.2 °F 51.8 °F 60% 29.98 in 3.0 mi SW 6.9 mph - 0.17 in Rain , Thunderstorm Light Thunderstorms and Rain
3:53 PM 66.0 °F 55.0 °F 68% 29.83 in 10.0 mi NW 4.6 mph - 0.17 in Rain , Thunderstorm Light Rain
4:40 PM 78.8 °F 46.4 °F 32% 29.95 in 10.0 mi WSW 6.9 mph - 0.00 in   Clear
4:48 PM 78.8 °F 44.6 °F 30% 29.95 in 10.0 mi SW 8.1 mph - 0.00 in Thunderstorm Clear
4:53 PM 78.1 °F 48.0 °F 35% 29.79 in 10.0 mi South 8.1 mph - 0.00 in Thunderstorm Partly Cloudy
5:03 PM 75.2 °F 51.8 °F 44% 29.95 in 10.0 mi SE 18.4 mph 24.2 mph N/A   Partly Cloudy
5:09 PM 73.4 °F 48.2 °F 41% 29.96 in 10.0 mi SSE 12.7 mph 24.2 mph N/A Thunderstorm Partly Cloudy
5:36 PM 73.4 °F 46.4 °F 38% 29.91 in 10.0 mi East 8.1 mph 27.6 mph 0.00 in Rain Light Rain
5:53 PM 75.9 °F 45.0 °F 33% 29.74 in 10.0 mi SSE 8.1 mph - 0.00 in   Partly Cloudy
6:53 PM 75.9 °F 45.0 °F 33% 29.70 in 10.0 mi ESE 11.5 mph - N/A   Clear
7:53 PM 73.0 °F 45.0 °F 37% 29.69 in 10.0 mi East 11.5 mph 25.3 mph N/A   Partly Cloudy
8:53 PM 66.9 °F 53.1 °F 61% 29.70 in 10.0 mi NE 12.7 mph - N/A   Partly Cloudy
9:53 PM 64.9 °F 53.1 °F 65% 29.68 in 10.0 mi ENE 10.4 mph - N/A   Clear
10:53 PM 64.0 °F 55.0 °F 73% 29.65 in 10.0 mi ENE 10.4 mph - N/A   Clear
11:53 PM 55.9 °F 53.1 °F 90% 29.65 in 10.0 mi WSW 4.6 mph - N/A   Clear